| time (UTC) | temp C | wind direction | speed KPH | gust KPH | rain 1hr cm | rain 24hr cm | rain mn cm | humidity % | barometer mb |
| 20260906130059 | 23 | 355 | 8.0 | 19.3 | 0.00 | 0.00 | 0.00 | 89 | 1016.1 |
| 20260906124557 | 23 | 21 | 8.0 | 17.7 | 0.00 | 0.00 | 0.00 | 89 | 1015.7 |
| 20260906123100 | 23 | 350 | 9.7 | 16.1 | 0.00 | 0.00 | 0.00 | 89 | 1015.7 |
| 20260906121607 | 23 | 46 | 4.8 | 12.9 | 0.00 | 0.00 | 0.00 | 88 | 1015.7 |
| 20260906114612 | 23 | 33 | 4.8 | 14.5 | 0.00 | 0.00 | 0.00 | 88 | 1015.5 |
| 20260906113055 | 23 | 5 | 8.0 | 16.1 | 0.00 | 0.00 | 0.00 | 88 | 1015.4 |
| 20260906111604 | 23 | 28 | 8.0 | 19.3 | 0.00 | 0.00 | 0.00 | 88 | 1015.2 |
| 20260906110104 | 23 | 15 | 8.0 | 14.5 | 0.00 | 0.00 | 0.00 | 87 | 1015.1 |
| 20260906104555 | 23 | 360 | 4.8 | 14.5 | 0.00 | 0.00 | 0.00 | 87 | 1014.9 |
| 20260906103110 | 24 | 352 | 6.4 | 14.5 | 0.00 | 0.00 | 0.00 | 87 | 1014.9 |
| 20260906101557 | 24 | 355 | 6.4 | 14.5 | 0.00 | 0.00 | 0.00 | 87 | 1014.6 |
| 20260906100104 | 24 | 16 | 6.4 | 14.5 | 0.00 | 0.00 | 0.00 | 87 | 1014.5 |
| 20260906094607 | 25 | 19 | 6.4 | 12.9 | 0.00 | 0.00 | 0.00 | 86 | 1014.3 |
| 20260906093100 | 25 | 17 | 6.4 | 12.9 | 0.00 | 0.00 | 0.00 | 86 | 1014.2 |
| 20260906091601 | 25 | 19 | 4.8 | 14.5 | 0.00 | 0.00 | 0.00 | 85 | 1014.3 |
| 20260906090117 | 25 | 355 | 3.2 | 8.0 | 0.00 | 0.00 | 0.00 | 85 | 1014.1 |
| 20260906084607 | 25 | 5 | 1.6 | 6.4 | 0.00 | 0.00 | 0.00 | 84 | 1013.9 |
| 20260906083056 | 26 | 36 | 3.2 | 12.9 | 0.00 | 0.00 | 0.00 | 84 | 1013.8 |
| 20260906081558 | 26 | 23 | 3.2 | 8.0 | 0.00 | 0.00 | 0.00 | 83 | 1013.6 |
| 20260906080126 | 26 | 39 | 4.8 | 12.9 | 0.00 | 0.00 | 0.00 | 82 | 1013.7 |
| 20260906074610 | 26 | 15 | 4.8 | 12.9 | 0.00 | 0.00 | 0.00 | 81 | 1013.9 |
| 20260906073109 | 26 | 41 | 3.2 | 14.5 | 0.00 | 0.00 | 0.00 | 80 | 1013.9 |
| 20260906071603 | 26 | 24 | 6.4 | 16.1 | 0.00 | 0.00 | 0.00 | 78 | 1013.9 |
| 20260906070106 | 27 | 34 | 4.8 | 12.9 | 0.00 | 0.00 | 0.00 | 77 | 1014.1 |
| 20260906064558 | 27 | 50 | 6.4 | 17.7 | 0.00 | 0.00 | 0.00 | 77 | 1014.2 |
| 20260906063101 | 27 | 15 | 4.8 | 12.9 | 0.00 | 0.00 | 0.00 | 77 | 1014.2 |
| 20260906061558 | 27 | 5 | 4.8 | 12.9 | 0.00 | 0.00 | 0.00 | 76 | 1014.4 |
| 20260906060055 | 27 | 23 | 4.8 | 8.0 | 0.00 | 0.00 | 0.00 | 75 | 1014.3 |
| 20260906054601 | 27 | 27 | 3.2 | 12.9 | 0.00 | 0.00 | 0.00 | 74 | 1014.2 |
| 20260906053058 | 27 | 5 | 4.8 | 12.9 | 0.00 | 0.00 | 0.00 | 73 | 1014.3 |
| 20260906051605 | 27 | 39 | 3.2 | 11.3 | 0.00 | 0.00 | 0.00 | 72 | 1014.2 |
| 20260906050108 | 27 | 11 | 4.8 | 11.3 | 0.00 | 0.00 | 0.00 | 71 | 1014.2 |
| 20260906044556 | 27 | 355 | 3.2 | 8.0 | 0.00 | 0.00 | 0.00 | 70 | 1014.1 |
| 20260906043100 | 27 | 9 | 4.8 | 8.0 | 0.00 | 0.00 | 0.00 | 69 | 1013.9 |
| 20260906041603 | 27 | 346 | 1.6 | 8.0 | 0.00 | 0.00 | 0.00 | 69 | 1013.9 |
| 20260906034620 | 27 | 328 | 3.2 | 6.4 | 0.00 | 0.00 | 0.00 | 68 | 1013.5 |
| 20260906033058 | 27 | 0 | 0.0 | 0.0 | 0.00 | 0.00 | 0.00 | 68 | 1013.5 |
| 20260906031601 | 27 | 0 | 0.0 | 0.0 | 0.00 | 0.00 | 0.00 | 68 | 1013.5 |
| 20260906030100 | 27 | 0 | 0.0 | 0.0 | 0.00 | 0.00 | 0.00 | 68 | 1013.3 |
| 20260906024557 | 27 | 0 | 0.0 | 0.0 | 0.00 | 0.00 | 0.00 | 68 | 1013.2 |
| 20260906023102 | 27 | 0 | 0.0 | 0.0 | 0.00 | 0.00 | 0.00 | 68 | 1013.3 |
| 20260906021607 | 27 | 0 | 0.0 | 0.0 | 0.00 | 0.00 | 0.00 | 68 | 1013.2 |
| 20260906020107 | 27 | 0 | 0.0 | 0.0 | 0.00 | 0.00 | 0.00 | 68 | 1013.0 |
| 20260906014558 | 27 | 0 | 0.0 | 0.0 | 0.00 | 0.00 | 0.00 | 68 | 1012.7 |
| 20260906013105 | 28 | 0 | 0.0 | 0.0 | 0.00 | 0.00 | 0.00 | 65 | 1012.6 |
| 20260906011604 | 29 | 0 | 0.0 | 0.0 | 0.00 | 0.00 | 0.00 | 62 | 1012.6 |
| 20260906010105 | 29 | 227 | 0.0 | 4.8 | 0.00 | 0.00 | 0.00 | 59 | 1012.5 |
| 20260906004603 | 30 | 227 | 1.6 | 6.4 | 0.00 | 0.00 | 0.00 | 59 | 1012.4 |
| 20260906003101 | 30 | 225 | 3.2 | 9.7 | 0.00 | 0.00 | 0.00 | 59 | 1012.2 |
| 20260906001559 | 30 | 215 | 1.6 | 9.7 | 0.00 | 0.00 | 0.00 | 57 | 1012.4 |
| 20260906000111 | 30 | 0 | 6.4 | 12.9 | 0.00 | 0.00 | 0.00 | 57 | 1012.6 |
| 20260905234620 | 30 | 211 | 4.8 | 14.5 | 0.00 | 0.00 | 0.00 | 56 | 1012.7 |
| 20260905233102 | 30 | 221 | 6.4 | 14.5 | 0.00 | 0.00 | 0.00 | 55 | 1012.8 |
| 20260905231605 | 30 | 268 | 6.4 | 16.1 | 0.00 | 0.00 | 0.00 | 55 | 1012.6 |
| 20260905230106 | 31 | 245 | 8.0 | 19.3 | 0.00 | 0.00 | 0.00 | 53 | 1012.8 |
| 20260905224616 | 31 | 213 | 6.4 | 17.7 | 0.00 | 0.00 | 0.00 | 52 | 1012.5 |
| 20260905223100 | 32 | 234 | 8.0 | 27.4 | 0.00 | 0.00 | 0.00 | 50 | 1012.7 |
| 20260905221602 | 32 | 241 | 11.3 | 19.3 | 0.00 | 0.00 | 0.00 | 49 | 1012.4 |
| 20260905220118 | 33 | 203 | 9.7 | 22.5 | 0.00 | 0.00 | 0.00 | 48 | 1012.6 |
| 20260905214603 | 33 | 201 | 6.4 | 19.3 | 0.00 | 0.00 | 0.00 | 49 | 1012.8 |
| 20260905213102 | 32 | 155 | 8.0 | 27.4 | 0.00 | 0.00 | 0.00 | 52 | 1012.7 |
| 20260905211556 | 32 | 202 | 20.9 | 32.2 | 0.00 | 0.00 | 0.00 | 53 | 1012.7 |
| 20260905210109 | 32 | 215 | 14.5 | 27.4 | 0.00 | 0.00 | 0.00 | 53 | 1013.3 |
| 20260905204559 | 34 | 196 | 16.1 | 43.5 | 0.00 | 0.00 | 0.00 | 45 | 1013.3 |
| 20260905203114 | 39 | 207 | 1.6 | 16.1 | 0.00 | 0.00 | 0.00 | 35 | 1012.9 |
| 20260905201603 | 39 | 345 | 3.2 | 8.0 | 0.00 | 0.00 | 0.00 | 38 | 1012.8 |
| 20260905200107 | 38 | 5 | 4.8 | 14.5 | 0.00 | 0.00 | 0.00 | 39 | 1013.1 |
| 20260905194558 | 39 | 355 | 4.8 | 16.1 | 0.00 | 0.00 | 0.00 | 38 | 1013.1 |
| 20260905193103 | 39 | 355 | 6.4 | 14.5 | 0.00 | 0.00 | 0.00 | 40 | 1013.4 |
| 20260905191605 | 38 | 44 | 4.8 | 16.1 | 0.00 | 0.00 | 0.00 | 39 | 1013.5 |
| 20260905184611 | 38 | 24 | 6.4 | 16.1 | 0.00 | 0.00 | 0.00 | 39 | 1014.1 |
| 20260905183057 | 37 | 352 | 4.8 | 19.3 | 0.00 | 0.00 | 0.00 | 41 | 1014.1 |
| 20260905181603 | 37 | 302 | 4.8 | 16.1 | 0.00 | 0.00 | 0.00 | 44 | 1014.2 |
| 20260905180105 | 37 | 360 | 8.0 | 16.1 | 0.00 | 0.00 | 0.00 | 46 | 1014.3 |
| 20260905174604 | 36 | 284 | 6.4 | 14.5 | 0.00 | 0.00 | 0.00 | 47 | 1014.4 |
| 20260905173105 | 36 | 273 | 9.7 | 14.5 | 0.00 | 0.00 | 0.00 | 46 | 1014.6 |
| 20260905171635 | 36 | 277 | 4.8 | 14.5 | 0.00 | 0.00 | 0.00 | 46 | 1014.9 |
| 20260905170107 | 36 | 0 | 3.2 | 14.5 | 0.00 | 0.00 | 0.00 | 48 | 1015.1 |
| 20260905164605 | 36 | 346 | 4.8 | 14.5 | 0.00 | 0.00 | 0.00 | 48 | 1015.2 |
| 20260905163058 | 35 | 254 | 3.2 | 16.1 | 0.00 | 0.00 | 0.00 | 48 | 1015.2 |
| 20260905161601 | 35 | 321 | 3.2 | 14.5 | 0.00 | 0.00 | 0.00 | 48 | 1015.3 |
| 20260905160109 | 33 | 310 | 6.4 | 14.5 | 0.00 | 0.00 | 0.00 | 52 | 1015.4 |
| 20260905154648 | 32 | 281 | 3.2 | 12.9 | 0.00 | 0.00 | 0.00 | 57 | 1015.5 |
| 20260905153104 | 32 | 270 | 3.2 | 8.0 | 0.00 | 0.00 | 0.00 | 61 | 1015.7 |
| 20260905151604 | 31 | 180 | 0.0 | 6.4 | 0.00 | 0.00 | 0.00 | 63 | 1015.7 |
| 20260905150105 | 30 | 0 | 1.6 | 8.0 | 0.00 | 0.00 | 0.00 | 64 | 1015.4 |
| 20260905144610 | 30 | 0 | 0.0 | 8.0 | 0.00 | 0.00 | 0.00 | 63 | 1015.4 |
| 20260905143106 | 30 | 286 | 6.4 | 12.9 | 0.00 | 0.00 | 0.00 | 62 | 1015.4 |
| 20260905141601 | 29 | 188 | 8.0 | 14.5 | 0.00 | 0.00 | 0.00 | 65 | 1015.4 |
| 20260905140105 | 28 | 154 | 4.8 | 11.3 | 0.00 | 0.00 | 0.00 | 68 | 1015.5 |
| 20260905134608 | 27 | 200 | 4.8 | 12.9 | 0.00 | 0.00 | 0.00 | 70 | 1015.5 |
| 20260905133103 | 27 | 178 | 4.8 | 12.9 | 0.00 | 0.00 | 0.00 | 75 | 1015.3 |
| 20260905131559 | 26 | 215 | 3.2 | 9.7 | 0.00 | 0.00 | 0.00 | 78 | 1015.2 |